• MPC Preparation (Info)

  • MPEC 2005-B38 : 2005 BH14

    The following Minor Planet Electronic Circular may be linked-to from your own Web pages, but must not otherwise be redistributed electronically.

    A form allowing access to any MPEC is at the bottom of this page.


    Read MPEC 2005-B37 Read MPEC 2005-B39


    M.P.E.C. 2005-B38                                Issued 2005 Jan. 21, 17:11 UT
    
         The Minor Planet Electronic Circulars contain information on unusual
             minor planets and routine data on comets.  They are published
       on behalf of Commission 20 of the International Astronomical Union by the
              Minor Planet Center, Smithsonian Astrophysical Observatory,
                              Cambridge, MA 02138, U.S.A.
    
                      Supported in part by the Brinson Foundation
                 Prepared using the Tamkin Foundation Computer Network
    
                                  MPC@CFA.HARVARD.EDU
              URL http://cfa-www.harvard.edu/iau/mpc.html  ISSN 1523-6714
    
                                       2005 BH14
    
    Observations:
         K05B14H* C2005 01 20.21365 06 47 08.60 +51 35 41.9          17.7   EB038704
         K05B14H  C2005 01 20.22625 06 47 01.99 +51 30 42.2          17.7   EB038704
         K05B14H  C2005 01 20.23889 06 46 55.46 +51 25 41.8          18.7   EB038704
         K05B14H  C2005 01 20.25201 06 46 48.74 +51 20 30.9          17.6   EB038704
         K05B14H  C2005 01 20.26516 06 46 41.99 +51 15 19.3          17.8   EB038704
         K05B14H 5C2005 01 21.24317 06 40 45.50 +45 24 25.2          17.5 R EB038673
         K05B14H 5C2005 01 21.24821 06 40 43.81 +45 22 46.8                 EB038673
         K05B14H 5C2005 01 21.25353 06 40 42.02 +45 21 03.4                 EB038673
         K05B14H 5C2005 01 21.25920 06 40 40.13 +45 19 12.8                 EB038673
         K05B14H 5C2005 01 21.26198 06 40 39.20 +45 18 18.8                 EB038673
         K05B14H 5C2005 01 21.26800 06 40 37.18 +45 16 21.9                 EB038673
         K05B14H  C2005 01 21.26870 06 40 34.56 +45 15 56.6          18.4 V EB038H36
         K05B14H  C2005 01 21.28049 06 40 30.74 +45 12 08.0          18.5 V EB038H36
         K05B14H  C2005 01 21.28921 06 40 27.90 +45 09 17.0          17.8 V EB038H36
    
    Observer details:
    673 Table Mountain Observatory, Wrightwood.  Observer J. Young.  0.6-m
        reflector + CCD.
    704 Lincoln Laboratory ETS, New Mexico.  Observers M. Blythe, F. Shelly,
        M. Bezpalko, R. Huber, L. Manguso, D. Torres, R. Krack.  Measurers
        J. Stuart, R. Sayer, J. Evans, J. Kommers.  1.0-m f/2.15 reflector + CCD.
    H36 Sandlot Observatory, Scranton.  Observer G. Hug.  0.3-m f/6
        Schmidt-Cassegrain + CCD.
    
    Orbital elements:
    2005 BH14
    Epoch 2005 Jan. 30.0 TT = JDT 2453400.5                 MPC
    M  52.67064              (2000.0)            P               Q
    n   0.78281883     Peri.   50.06013     +0.93395010     +0.05965656
    a   1.1659910      Node   303.63089     -0.26651293     +0.77319053
    e   0.6520263      Incl.   25.03857     +0.23813456     +0.63136162
    P   1.26           H   21.4           G   0.15           U   9
    Residuals in seconds of arc
    050120 704  0.3+  0.4+    050121 673  0.2-  0.5+    050121 673  0.1-  0.5+
    050120 704  0.2-  0.1+    050121 673  0.1-  0.3+    050121 H36  0.1-  1.3-
    050120 704  0.1-  0.3-    050121 673  0.2-  0.5+    050121 H36  0.3+  0.5+
    050120 704  0.2+  0.1-    050121 673  0.0   0.2+    050121 H36  0.1+  0.3-
    050120 704  0.1-  0.3-    050121 673  0.0   0.3+
    
    Ephemeris:
    2005 BH14                a,e,i = 1.17, 0.65, 25                  q = 0.4057
    Date    TT    R. A. (2000) Decl.     Delta      r     Elong.  Phase     V
    2005 01 20    06 48.88   +53 02.2    0.090    1.058   143.7    33.4    17.7
    2005 01 25    06 30.58   +30 51.1    0.145    1.113   150.7    25.7    18.6
    2005 01 30    06 26.83   +21 29.0    0.211    1.166   146.1    28.1    19.6
    2005 02 04    06 26.50   +16 40.4    0.282    1.217   140.7    30.9    20.4
    2005 02 09    06 27.80   +13 51.0    0.355    1.266   135.8    32.9    21.0
    2005 02 14    06 30.14   +12 02.9    0.431    1.312   131.2    34.5    21.6
    2005 02 19    06 33.27   +10 49.8    0.508    1.356   127.0    35.6    22.1
    
    Kyle E. Smalley              (C) Copyright 2005 MPC           M.P.E.C. 2005-B38
    

    Read MPEC 2005-B37 Read MPEC 2005-B39


    MPEC number:

    Enter an MPEC number in one of the following forms:

    • 1997-B01 (the full form)
    • J97B01 (the packed version of the full form)
    • B01 (the abbreviated form)